Home   Weather   Naha   Past weeks

Flag for Japan Past Weather in Naha, Okinawa, Japan — Yesterday and Last 2 Weeks

Now
59 °F

Passing clouds.


Feels Like: 55 °F
Forecast: 56 / 60 °F
Wind: 24 mph from North

Location: Naha Airport

Current Time: Jan 22, 2017 at 9:41:46 pm

Latest Report: Jan 22, 2017 at 9:00 pm


Visibility: N/A

Pressure: 30.30 "Hg

Humidity: 48%

Dew Point: 39 °F

Location of NahaLocation

Past Weather in Naha — Graph

°F

Naha Temperature Yesterday

Maximum temperature yesterday: 64 °F (at 12:00 pm)
Minimum temperature yesterday: 57 °F (at 1:00 am)
Average temperature yesterday: 60 °F

High & Low Weather Summary for the Past Weeks

 TemperatureHumidityPressure
High75 °F (Jan 7, 9:00 pm)94% (Jan 13, 12:00 am)30.33 "Hg (Jan 13, 12:00 am)
Low57 °F (Jan 16, 1:30 am)46% (Jan 15, 12:00 pm)29.80 "Hg (Jan 8, 3:00 am)
Average65 °F65%30.09 "Hg
* Reported Jan 7 8:00 pm — Jan 22 8:30 pm, Naha, Weather by CustomWeather, © 2017

Note: Actual official high and low records may vary slightly from our data, if they occured in-between our weather recording intervals... More about our weather records

Advertising

Naha Weather History for the Previous 24 Hours

Scroll right to see more
 ConditionsComfort  
Time TempWeatherWind HumidityBarometerVisibility
8:30 pm
Sun, Jan 22
59 °FPassing clouds.24 mph55%30.30 "HgN/A
8:00 pm59 °FPassing clouds.22 mph59%30.30 "HgN/A
7:30 pm59 °FPassing clouds.26 mph59%30.27 "HgN/A
7:00 pm59 °FPassing clouds.25 mph55%30.27 "HgN/A
6:30 pm61 °FPassing clouds.23 mph55%30.27 "HgN/A
6:00 pm61 °FPartly sunny.26 mph55%30.27 "HgN/A
5:30 pm61 °FPartly sunny.25 mph55%30.24 "HgN/A
5:00 pm61 °FPartly sunny.26 mph55%30.24 "HgN/A
4:30 pm61 °FPartly sunny.25 mph59%30.24 "HgN/A
4:00 pm63 °FPartly sunny.25 mph52%30.24 "HgN/A
3:30 pm63 °FScattered clouds.25 mph52%30.24 "HgN/A
3:00 pm63 °FScattered clouds.24 mph52%30.24 "HgN/A
2:30 pm63 °FPartly sunny.23 mph56%30.24 "HgN/A
2:00 pm64 °FScattered clouds.23 mph49%30.24 "HgN/A
1:30 pm64 °FPartly sunny.23 mph52%30.24 "HgN/A
1:00 pm63 °FPartly sunny.20 mph52%30.27 "HgN/A
12:30 pm64 °FScattered clouds.21 mph52%30.27 "HgN/A
12:00 pm63 °FScattered clouds.18 mph49%30.27 "HgN/A
11:30 am63 °FScattered clouds.17 mph49%30.30 "HgN/A
11:00 am63 °FPartly sunny.18 mph56%30.30 "HgN/A
10:30 am63 °FScattered clouds.17 mph49%30.33 "HgN/A
10:00 am63 °FScattered clouds.20 mph52%30.33 "HgN/A
9:30 am61 °FPartly sunny.18 mph55%30.33 "HgN/A
9:00 am61 °FScattered clouds.21 mph59%30.30 "HgN/A
8:30 am61 °FPartly sunny.20 mph59%30.30 "HgN/A
8:00 am61 °FPartly sunny.18 mph59%30.30 "HgN/A
7:30 am61 °FScattered clouds.17 mph63%30.27 "HgN/A
7:00 am61 °FPassing clouds.17 mph63%30.27 "HgN/A
6:30 am61 °FPassing clouds.16 mph63%30.24 "HgN/A
6:00 am61 °FPassing clouds.15 mph63%30.24 "HgN/A
5:30 am61 °FPassing clouds.14 mph72%30.24 "HgN/A
5:00 am59 °FPassing clouds.17 mph72%30.24 "HgN/A
4:30 am61 °FPassing clouds.15 mph72%30.24 "HgN/A
4:00 am59 °FScattered showers. Passing clouds.5 mph77%30.24 "HgN/A
3:30 am59 °FRain showers. Passing clouds.8 mph82%30.24 "HgN/A
3:00 am57 °FScattered showers. Passing clouds.3 mph88%30.24 "HgN/A
2:30 am59 °FLight rain. Passing clouds.5 mph82%30.24 "HgN/A
2:00 am59 °FLight rain. Partly cloudy.5 mph82%30.24 "HgN/A
1:30 am59 °FLight rain. Partly cloudy.3 mph82%30.24 "HgN/A
1:00 am59 °FLight rain. Partly cloudy.8 mph82%30.24 "HgN/A
12:30 am59 °FLight rain. Partly cloudy.5 mph82%30.24 "HgN/A
12:00 am59 °FLight rain. Passing clouds.1 mph82%30.27 "HgN/A
11:30 pm
Sat, Jan 21
59 °FLight rain. Passing clouds.5 mph82%30.27 "HgN/A
11:00 pm59 °FLight rain. Passing clouds.5 mph77%30.27 "HgN/A
10:30 pm59 °FLight rain. Passing clouds.10 mph72%30.27 "HgN/A
10:00 pm61 °FPassing clouds.2 mph68%30.27 "HgN/A
9:30 pm61 °FPassing clouds.5 mph59%30.24 "HgN/A
9:00 pm63 °FPassing clouds.3 mph56%30.27 "HgN/A
Weather by CustomWeather, © 2017

See weather overviewHow to use our weather pages